[[{"header":{"parameterUnit":"m.s-1","parameterCategory":1,"la1":30.2991,"la2":30.254,"lo1":-89.0895,"lo2":-89.0444,"dy":0.0017,"dx":0.0017,"nx":28,"ny":28,"refTime":"2024-02-26T03:00:00:Z","depth":0,"parameterNumber":2,"parameterNumberName":"U-component_of_WINDS"},"data":[0,0,0,0,0,0,0,0,0,0,0,0,0,0,0,0,0,0,0,0,0,0,0,0,0,0,0,0,0,0,0,0,0,0,0,0,0,0,0,0,0,0,0,0,0,0,0,0,0,0,0,0,0,0,0,0,0,0,0.5746,0.5746,0,0.5786,0.5786,0.5787,0.5768,0.5767,0.5766,0.5765,0.5806,0.5808,0.581,0,0,0,0,0,0,0,0,0,0,0,0,0,0.5652,0.5653,0.5746,0.5746,0.5747,0.5786,0.5786,0.5787,0.5768,0.5767,0.5766,0.5765,0.5805,0.5808,0.581,0,0,0,0,0,0,0,0,0,0,0,0,0,0.5692,0.5654,0.5745,0.5742,0.5742,0.5786,0.5786,0.5787,0.5769,0.5767,0.5766,0.5764,0.5805,0.5808,0.5811,0.586,0,0,0.582,0.5821,0,0,0,0,0,0,0,0,0.569,0.5696,0.5742,0.5742,0.5742,0.577,0.5768,0.5812,0.5769,0.5758,0.5765,0.5763,0.5795,0.5799,0.581,0.5862,0.5864,0.582,0.5822,0.5823,0.5824,0,0,0,0,0,0,0,0.5687,0.5694,0.5761,0.5743,0.5743,0.5738,0.5742,0.5776,0.5785,0.5759,0.5758,0.5763,0.5795,0.5807,0.5811,0.5864,0.582,0.5823,0.5825,0.5826,0.5958,0.596,0,0,0,0,0,0,0.5685,0.5692,0.576,0.5763,0.5712,0.5741,0.5746,0.5763,0.5785,0.5786,0.5764,0.5762,0.5803,0.5807,0.5812,0.5871,0.5823,0.5826,0.5828,0.5956,0.5958,0.596,0,0,0,0,0,0,0.5683,0.5691,0.5759,0.5727,0.5735,0.5744,0.5764,0.5765,0.5776,0.5788,0.579,0.5775,0.5802,0.5808,0.5848,0.5872,0.5828,0.583,0.5954,0.5957,0.5959,0.5989,0,0,0,0,0,0,0.568,0.569,0.5709,0.5727,0.5737,0.5794,0.5765,0.5766,0.5782,0.5779,0.5799,0.58,0.5801,0.5844,0.5851,0.5876,0.5833,0.5952,0.5955,0.5958,0.5986,0.5993,0.5998,0,0,0,0,0,0.5677,0.5716,0.571,0.5719,0.5761,0.5796,0.5801,0.5801,0.5784,0.5803,0.581,0.58,0.5868,0.5848,0.5856,0.5882,0.5951,0.5955,0.5958,0.5984,0.5991,0.5998,0,0,0,0,0,0,0.57,0.5718,0.5712,0.5759,0.5776,0.5792,0.5816,0.5809,0.5831,0.5828,0.5826,0.5831,0.5873,0.5881,0.5858,0.5931,0.5907,0.5913,0.5923,0.5931,0.5937,0.5934,0.5835,0,0,0,0,0,0.5711,0.5738,0.5752,0.5792,0.5801,0.5807,0.5822,0.5821,0.5838,0.5845,0.5856,0.5873,0.5898,0.5915,0.5939,0.5987,0.5991,0.6009,0.6015,0.602,0.6025,0.605,0.6059,0.5973,0.5972,0.5972,0,0,0.5733,0.5746,0.5763,0.5797,0.581,0.5837,0.5813,0.5843,0.5864,0.585,0.5888,0.5897,0.5916,0.596,0.598,0.5969,0.6049,0.6025,0.6028,0.6031,0.6055,0.6063,0.6071,0.5975,0.5975,0.5974,0,0,0.5788,0.58,0.5835,0.5848,0.5868,0.5872,0.5881,0.5899,0.5904,0.5942,0.5932,0.5956,0.6,0.6014,0.6027,0.6087,0.6077,0.6094,0.6125,0.615,0.6157,0.6163,0.6184,0.6192,0.6099,0.6099,0.6099,0,0.5812,0.5854,0.5853,0.5884,0.5899,0.5888,0.5922,0.5936,0.5963,0.5973,0.596,0.6014,0.6026,0.6074,0.6088,0.6099,0.6108,0.6092,0.6156,0.6162,0.6168,0.6188,0.6196,0.6101,0.6101,0.6101,0.6101,0,0.5883,0.5912,0.5938,0.5964,0.5982,0.6015,0.6019,0.6037,0.6033,0.6039,0.6078,0.6092,0.6119,0.613,0.6127,0.6177,0.6169,0.6156,0.6132,0.6178,0.6197,0.6204,0.6104,0.6103,0.6103,0.6102,0,0,0.5954,0.5979,0.5989,0.6,0.6022,0.6044,0.6076,0.6102,0.6118,0.6136,0.6163,0.62,0.6188,0.6203,0.6202,0.6224,0.627,0.6208,0.6209,0.6219,0.6325,0.6334,0.6343,0.6264,0.6265,0.6267,0.6323,0,0.6009,0.6066,0.6066,0.6118,0.6145,0.6134,0.6162,0.6178,0.6184,0.6207,0.6213,0.624,0.6222,0.6231,0.6252,0.626,0.6291,0.6256,0.6288,0.629,0.6284,0.6353,0.6363,0.6416,0.6331,0.6332,0.6333,0,0.6082,0.6103,0.6158,0.6176,0.6187,0.6212,0.6236,0.6258,0.6276,0.6278,0.6295,0.629,0.6322,0.6298,0.6342,0.6318,0.6331,0.6337,0.6339,0.6341,0.6314,0.6357,0.6433,0.6441,0.6344,0.6343,0.6343,0,0.6127,0.617,0.6208,0.6218,0.624,0.6258,0.6267,0.6284,0.6299,0.632,0.633,0.6354,0.6368,0.6386,0.6388,0.637,0.6432,0.6408,0.6435,0.6435,0.6449,0.6448,0.6527,0.6458,0.6458,0.6458,0.6457,0,0.6189,0.6223,0.6229,0.6252,0.6289,0.629,0.6326,0.6334,0.6349,0.6374,0.6366,0.6389,0.639,0.6414,0.6415,0.6452,0.6458,0.646,0.646,0.6461,0.6461,0.6469,0.6466,0.646,0.6459,0.6459,0.6458,0,0.6246,0.6251,0.6292,0.6309,0.6314,0.6341,0.6355,0.6377,0.6383,0.6414,0.6421,0.6429,0.6456,0.646,0.6492,0.6493,0.6536,0.6533,0.653,0.653,0.6557,0.6554,0.6644,0.6656,0.6579,0.658,0.6581,0,0.6285,0.6311,0.6331,0.6347,0.6357,0.6383,0.6399,0.64,0.6417,0.644,0.6459,0.6486,0.6507,0.6551,0.6559,0.6584,0.658,0.661,0.6584,0.6583,0.658,0.6578,0.6581,0.6615,0.6616,0.6617,0.6617,0,0.6354,0.6355,0.6378,0.6403,0.6423,0.6442,0.646,0.6473,0.6477,0.6496,0.6524,0.6541,0.6573,0.66,0.6624,0.6633,0.6626,0.6625,0.6633,0.6634,0.6631,0.6632,0.6544,0.6623,0.6623,0.6622,0.6622,0.6622,0.6402,0.6425,0.6442,0.6469,0.6483,0.65,0.6521,0.6529,0.6553,0.658,0.6579,0.661,0.6626,0.6658,0.6669,0.6693,0.6683,0.6694,0.6697,0.6699,0.6702,0.6628,0.6697,0.6697,0.6697,0.6697,0.6697,0,0.647,0.6481,0.6505,0.6531,0.6552,0.6544,0.6563,0.6581,0.6608,0.6625,0.6646,0.6678,0.6704,0.6714,0.6739,0.6756,0.6753,0.6763,0.6761,0.6763,0.6709,0.67,0.6764,0.6764,0.6764,0.6764,0.6764,0.6764,0.6508,0.6545,0.6549,0.6592,0.6603,0.6633,0.6645,0.6661,0.6674,0.671,0.6732,0.6739,0.6753,0.6778,0.6801,0.6804,0.6813,0.6824,0.6825,0.6774,0.6767,0.6761,0.6752,0.6826,0.6826,0.6876,0.6877,0.6877]},{"header":{"parameterUnit":"m.s-1","parameterCategory":1,"la1":30.2991,"la2":30.254,"lo1":-89.0895,"lo2":-89.0444,"dy":0.0017,"dx":0.0017,"nx":28,"ny":28,"refTime":"2024-02-26T03:00:00:Z","depth":0,"parameterNumber":3,"parameterNumberName":"V-component_of_WINDS"},"data":[0,0,0,0,0,0,0,0,0,0,0,0,0,0,0,0,0,0,0,0,0,0,0,0,0,0,0,0,0,0,0,0,0,0,0,0,0,0,0,0,0,0,0,0,0,0,0,0,0,0,0,0,0,0,0,0,0,0,2.1233,2.1234,0,2.132,2.1321,2.1322,2.1322,2.1321,2.132,2.1319,2.1413,2.1417,2.142,0,0,0,0,0,0,0,0,0,0,0,0,0,2.1071,2.1074,2.1233,2.1234,2.1235,2.132,2.1321,2.1322,2.1322,2.1321,2.132,2.1318,2.1412,2.1416,2.1421,0,0,0,0,0,0,0,0,0,0,0,0,0,2.1148,2.1075,2.1233,2.1245,2.1247,2.132,2.1321,2.1323,2.1323,2.1321,2.1319,2.1318,2.1411,2.1416,2.1421,2.1489,0,0,2.1437,2.144,0,0,0,0,0,0,0,0,2.1144,2.1154,2.1242,2.1244,2.1247,2.1308,2.1299,2.1378,2.1323,2.1294,2.1319,2.1317,2.138,2.1388,2.1408,2.1493,2.1497,2.1438,2.1441,2.1444,2.1445,0,0,0,0,0,0,0,2.1139,2.1151,2.1268,2.1244,2.1246,2.1248,2.1257,2.1314,2.1346,2.1297,2.1297,2.1307,2.1381,2.1403,2.141,2.1498,2.1438,2.1443,2.1446,2.1448,2.1643,2.1645,0,0,0,0,0,0,2.113,2.1146,2.1265,2.127,2.119,2.1252,2.1262,2.129,2.1345,2.1352,2.1308,2.1306,2.1395,2.1404,2.1414,2.1496,2.1443,2.1449,2.1452,2.1641,2.1644,2.1646,0,0,0,0,0,0,2.1126,2.1141,2.1261,2.1208,2.1224,2.1257,2.1288,2.1293,2.1315,2.1354,2.136,2.1324,2.1394,2.1406,2.147,2.15,2.1451,2.1456,2.1639,2.1642,2.1645,2.1662,0,0,0,0,0,0,2.1122,2.1139,2.1164,2.1209,2.1226,2.1315,2.129,2.1296,2.1324,2.1322,2.1371,2.1377,2.1393,2.1462,2.1475,2.1506,2.146,2.1636,2.164,2.1644,2.1659,2.1666,2.1671,0,0,0,0,0,2.1116,2.1167,2.1166,2.118,2.1258,2.1316,2.1327,2.1343,2.1326,2.1352,2.1377,2.1376,2.1494,2.1468,2.1483,2.1517,2.1635,2.1639,2.1643,2.1657,2.1664,2.1671,0,0,0,0,0,0,2.1128,2.1173,2.1172,2.1238,2.1273,2.1316,2.135,2.135,2.1392,2.1389,2.1408,2.1419,2.1483,2.1506,2.1476,2.1585,2.1562,2.157,2.1567,2.1575,2.1581,2.1575,2.1464,0,0,0,0,0,2.1137,2.1179,2.1217,2.1272,2.129,2.1316,2.1343,2.1351,2.1389,2.1404,2.1434,2.1472,2.1517,2.1547,2.1591,2.1662,2.1673,2.1692,2.1698,2.1703,2.171,2.1749,2.1758,2.166,2.166,2.166,0,0,2.1159,2.1189,2.1215,2.1275,2.1303,2.1348,2.1329,2.1377,2.141,2.1412,2.1474,2.1496,2.154,2.1607,2.1639,2.1629,2.1739,2.1708,2.1712,2.1716,2.1755,2.1764,2.1772,2.1663,2.1663,2.1662,0,0,2.1221,2.1248,2.1296,2.1324,2.1366,2.1383,2.1395,2.1438,2.1452,2.1514,2.1516,2.1557,2.1635,2.1666,2.1692,2.1764,2.1765,2.1778,2.1809,2.1847,2.1855,2.1862,2.1889,2.1898,2.1784,2.1784,2.1784,0,2.1244,2.1309,2.1322,2.137,2.1397,2.1398,2.1448,2.1475,2.153,2.1549,2.1537,2.1634,2.1664,2.1738,2.1756,2.1777,2.1792,2.1773,2.1853,2.186,2.1867,2.1892,2.1902,2.1786,2.1786,2.1785,2.1785,0,2.1335,2.138,2.1414,2.1465,2.1496,2.1545,2.1567,2.1596,2.1602,2.1621,2.1684,2.1719,2.177,2.1788,2.1796,2.1864,2.1857,2.1848,2.1826,2.1877,2.1902,2.1912,2.1788,2.1787,2.1787,2.1787,0,0,2.1409,2.1464,2.1477,2.15,2.1545,2.1582,2.163,2.1679,2.1704,2.1742,2.1784,2.1849,2.1841,2.1871,2.1881,2.1915,2.1971,2.1902,2.1903,2.1914,2.2049,2.2056,2.2068,2.197,2.1972,2.1974,2.2046,0,2.1477,2.1562,2.1574,2.165,2.1693,2.1694,2.1737,2.177,2.1789,2.1828,2.185,2.1896,2.1881,2.1899,2.1932,2.1957,2.1998,2.1951,2.2012,2.2014,2.2002,2.208,2.2088,2.2155,2.2056,2.2057,2.2058,0,2.1568,2.1605,2.1685,2.1724,2.1742,2.178,2.1825,2.1863,2.1901,2.1912,2.1944,2.195,2.2002,2.1977,2.2049,2.2017,2.2043,2.2058,2.2061,2.2069,2.204,2.2091,2.2176,2.2187,2.2074,2.2072,2.2071,0,2.1615,2.1686,2.1742,2.1762,2.1809,2.1835,2.1856,2.1892,2.192,2.196,2.1979,2.2024,2.205,2.2086,2.2104,2.2084,2.2176,2.2152,2.2188,2.2188,2.2209,2.2208,2.2301,2.2223,2.2223,2.2223,2.2223,0,2.169,2.1739,2.1764,2.1799,2.1854,2.1868,2.1923,2.1943,2.1975,2.2015,2.2019,2.2057,2.2078,2.212,2.2135,2.2193,2.2205,2.2216,2.222,2.2217,2.2215,2.2235,2.2231,2.2225,2.2225,2.2224,2.2224,0,2.1753,2.1771,2.1833,2.1872,2.1882,2.1921,2.1955,2.199,2.2007,2.2058,2.2071,2.2099,2.2148,2.2169,2.223,2.224,2.2307,2.2307,2.2294,2.2296,2.2331,2.2328,2.2441,2.2457,2.2367,2.2368,2.2369,0,2.1801,2.1839,2.188,2.1906,2.1927,2.197,2.1997,2.2013,2.2042,2.2087,2.2117,2.2165,2.2205,2.2283,2.231,2.2356,2.2358,2.2394,2.2365,2.2361,2.236,2.2358,2.2362,2.24,2.2401,2.2402,2.2402,0,2.1885,2.1891,2.193,2.1972,2.2005,2.204,2.2073,2.2095,2.2116,2.2148,2.2197,2.2228,2.2288,2.2337,2.2384,2.2408,2.241,2.2411,2.2422,2.242,2.2411,2.2418,2.231,2.2409,2.2408,2.2408,2.2407,2.2407,2.1943,2.1976,2.201,2.2053,2.2079,2.2111,2.2145,2.2166,2.2206,2.2255,2.2262,2.2314,2.2351,2.2415,2.244,2.2482,2.2474,2.2489,2.2494,2.2498,2.25,2.2403,2.2491,2.2491,2.249,2.249,2.249,0,2.2027,2.2048,2.2088,2.2134,2.2168,2.2163,2.22,2.223,2.2276,2.2309,2.2347,2.2403,2.2449,2.2479,2.2526,2.2555,2.2556,2.2567,2.2566,2.2571,2.2505,2.2491,2.2564,2.2564,2.2564,2.2564,2.2564,2.2564,2.2075,2.2131,2.2142,2.2211,2.2232,2.2282,2.2304,2.2333,2.2359,2.2421,2.2459,2.2477,2.2509,2.2559,2.2601,2.2609,2.2627,2.2638,2.2645,2.2583,2.2576,2.2569,2.2556,2.2641,2.2641,2.2708,2.2709,2.2709]}]]